#timestamp,LO_Frequency,Hit,StdDev 
1593028815.7,286047003.8,N
1593028835.6,286046999.7,N
1593028855.4,286046998.3,N
1593028875.2,286046999.2,N
1593028895.1,286047002.8,N
1593028896.0,286047002.8,N
1593028915.8,286047003.9,N
1593028935.7,286047003.2,N
1593028955.5,286047004.8,N
1593028975.3,286047003.3,N
1593028995.2,286047001.7,N
1593029015.9,286047001.9,N
1593029035.7,286047002.7,N
1593029055.6,286046999.5,N
1593029075.4,286046998.8,N
1593029095.3,286046999.7,N
1593029115.1,286047005.2,N
1593029116.0,286047005.2,N
1593029135.8,286047003.2,N
1593029155.7,286047004.5,N
1593029175.5,286047007.3,N
1593029195.3,286047006.9,N
1593029215.2,286047006.2,N
1593029235.0,286047012.1,N
1593029235.9,286047012.1,N
1593029255.8,286047010.7,N
1593029275.6,286047010.0,N
1593029295.4,286047009.4,N
1593029315.3,286047009.8,N
1593029335.1,286047009.6,N
1593029355.8,286047010.9,N
1593029375.7,286047011.0,N
1593029395.5,286047009.4,N
1593029415.3,286047008.1,N
1593029435.2,286047007.7,N
1593029455.0,286047009.2,N
1593029455.9,286047009.2,N
1593029475.8,286047010.1,N
1593029495.6,286047013.8,Y
1593029515.4,286047005.9,P
1593029535.3,286047004.3,P
1593029555.1,286047003.3,P
1593029575.9,286047005.9,Y
1593029595.7,286047002.8,P
1593029615.5,286047002.6,N
1593029635.4,286047003.4,P
1593029655.2,286047001.3,N
1593029675.1,286047001.8,N
1593029676.0,286047001.8,N
1593029695.8,286047004.1,Y
1593029715.6,286047002.3,P
1593029735.5,286047002.0,P
1593029755.3,286047003.7,P
1593029775.1,286047005.6,Y
1593029795.9,286047005.0,P
1593029815.7,286047005.5,P
1593029835.6,286047003.1,N
1593029855.4,286047003.1,N
1593029875.2,286047005.1,Y
1593029895.1,286047002.6,P
1593029896.0,286047002.6,P
1593029915.8,286047002.6,P
1593029935.7,286047002.5,Y
1593029955.5,286046996.9,P
1593029975.3,286046996.6,N
1593029995.2,286046998.7,N
1593030015.9,286046997.3,N
1593030035.7,286047001.1,N
1593030055.6,286047001.6,N
1593030075.4,286047000.4,N
1593030095.2,286047004.1,N
1593030115.1,286047006.8,N
1593030116.0,286047006.8,N
1593030135.8,286047007.0,N
1593030155.7,286047008.3,N
1593030175.5,286047006.4,N
1593030195.3,286047004.7,N
1593030215.2,286047006.7,N
1593030235.0,286047007.9,N
1593030235.9,286047007.9,N
1593030255.7,286047010.1,N
1593030275.6,286047011.0,N
1593030295.4,286047010.3,N
1593030315.3,286047007.0,N
1593030335.1,286047006.5,N
1593030336.0,286047006.5,N
1593030355.8,286047010.7,N
1593030375.7,286047009.8,N
1593030395.5,286047012.3,N
1593030415.3,286047014.6,Y
1593030435.2,286047012.7,P
1593030455.0,286047018.8,P
1593030455.9,286047018.8,P
1593030475.8,286047020.6,Y
1593030495.6,286047011.7,P
1593030515.4,286047015.3,P
1593030535.3,286047018.4,P
1593030555.1,286047021.6,Y
1593030575.8,286047007.4,P
1593030595.7,286047009.1,N
1593030615.5,286047006.2,N
1593030635.4,286047008.0,N
1593030655.2,286047004.9,N
1593030675.0,286047002.0,N
1593030675.9,286047002.0,N
1593030695.8,286046999.2,N
1593030715.6,286046996.3,N
1593030735.4,286046992.7,N
1593030755.3,286046991.3,N
1593030775.1,286046988.0,N
1593030795.9,286046987.2,N
1593030815.7,286046989.4,N
1593030835.5,286046989.2,N
1593030855.4,286046991.2,N
1593030875.2,286046990.4,N
1593030895.0,286046993.6,N
1593030896.0,286046993.6,N
1593030915.8,286046997.3,N
1593030935.7,286047001.6,N
1593030955.5,286047006.6,N
1593030975.3,286047011.6,N
1593030995.2,286047016.0,N
1593031015.9,286047020.2,N
1593031035.7,286047023.9,N
1593031055.6,286047027.5,N
1593031075.4,286047033.0,N
1593031095.2,286047035.6,N
1593031115.1,286047037.8,N
1593031116.0,286047037.8,N
1593031135.8,286047038.5,N
1593031155.7,286047040.6,N
1593031175.5,286047038.9,N
1593031195.3,286047040.2,N
1593031215.2,286047045.9,N
1593031235.0,286047045.7,N
1593031235.9,286047045.7,N
1593031255.8,286047046.8,N
1593031275.6,286047048.6,N
1593031295.4,286047051.6,N
1593031315.3,286047053.5,N
1593031335.1,286047057.1,N
1593031355.8,286047058.4,N
1593031375.7,286047058.5,N
1593031395.5,286047059.1,N
1593031415.3,286047061.3,N
1593031435.2,286047063.1,Y
1593031455.0,286047030.0,P
1593031455.9,286047030.0,P
1593031475.8,286047029.9,P
1593031495.6,286047027.0,Y
1593031515.4,286046995.7,P
1593031535.3,286046992.0,N
1593031555.1,286046985.8,N
1593031575.9,286046982.0,N
1593031595.7,286046978.4,N
1593031615.5,286046977.0,N
1593031635.4,286046975.1,N
1593031655.2,286046977.2,N
1593031675.0,286046975.2,N
1593031675.9,286046975.2,N
1593031695.8,286046977.0,N
1593031715.6,286046977.0,N
1593031735.5,286046986.3,N
1593031755.3,286046982.0,N
1593031775.1,286046982.8,N
1593031795.9,286046986.8,N
1593031815.7,286046984.0,N
1593031835.5,286046987.9,N
1593031855.4,286046988.1,N
1593031875.2,286046987.0,N
1593031895.0,286046991.2,N
1593031895.9,286046991.2,N
1593031915.8,286046991.0,N
1593031935.6,286046991.6,N
1593031955.5,286046991.4,N
1593031975.3,286046992.1,N
1593031995.1,286046995.1,N
1593032015.9,286046999.2,N
1593032035.7,286046999.5,N
1593032055.5,286047003.5,N
1593032075.4,286047001.8,N
1593032095.2,286047003.4,N
1593032115.1,286047004.2,N
1593032116.0,286047004.2,N
1593032135.8,286047004.3,N
1593032155.6,286047003.7,N
1593032175.5,286047005.2,N
1593032195.3,286047009.2,N
1593032215.1,286047012.2,N
1593032235.9,286047015.6,N
1593032255.7,286047013.3,N
1593032275.6,286047012.8,N
1593032295.4,286047015.0,N
1593032315.2,286047011.6,N
1593032335.1,286047012.3,N
1593032336.0,286047012.3,N
1593032355.8,286047011.6,N
1593032375.6,286047012.9,N
1593032395.5,286047012.1,N
